CW9792 Weather Reports


Display with metric or nautical units.
time (UTC)temp
F
wind
direction
speed
MPH
gust
MPH
rain 1hr
in
rain 24hr
in
rain mn
in
humidity
%
barometer
mb
20260831031002 74 231 0.0 0.0 0.00 0.00 0.00 63 1017.3
20260831030502 74 231 0.0 0.0 0.00 0.00 0.00 63 1017.3
20260831030003 74 231 0.0 0.0 0.00 0.00 0.00 63 1017.3
20260831025502 74 231 0.0 0.0 0.00 0.00 0.00 63 1017.2
20260831025002 74 231 0.0 0.0 0.00 0.00 0.00 63 1017.2
20260831024502 74 231 0.0 0.0 0.00 0.00 0.00 63 1017.1
20260831024003 74 231 0.0 0.0 0.00 0.00 0.00 63 1017.1
20260831023503 75 231 0.0 0.0 0.00 0.00 0.00 63 1017.0
20260831023001 75 231 0.0 0.0 0.00 0.00 0.00 63 1017.0
20260831022501 75 231 0.0 0.0 0.00 0.00 0.00 62 1017.1
20260831022002 75 231 0.0 0.0 0.00 0.00 0.00 62 1017.1
20260831021503 75 231 0.0 0.0 0.00 0.00 0.00 62 1017.1
20260831021101 75 231 0.0 0.0 0.00 0.00 0.00 62 1017.1
20260831021002 75 231 0.0 0.0 0.00 0.00 0.00 62 1017.1
20260831020602 75 231 0.0 0.0 0.00 0.00 0.00 63 1017.0
20260831015600 76 231 0.0 0.0 0.00 0.00 0.00 63 1017.0
20260831015101 76 231 0.0 0.0 0.00 0.00 0.00 63 1017.0
20260831014600 76 231 0.0 0.0 0.00 0.00 0.00 62 1016.9
20260831014101 76 231 0.0 0.0 0.00 0.00 0.00 62 1016.9
20260831013559 77 231 0.0 0.0 0.00 0.00 0.00 62 1016.8
20260831013100 77 231 0.0 0.0 0.00 0.00 0.00 62 1016.8
20260831012559 77 231 0.0 0.0 0.00 0.00 0.00 62 1016.6
20260831012100 78 231 0.0 0.0 0.00 0.00 0.00 61 1016.7
20260831011558 78 231 0.0 0.0 0.00 0.00 0.00 61 1016.6
20260831011058 78 231 0.0 0.0 0.00 0.00 0.00 60 1016.5
20260831010558 78 231 0.0 0.0 0.00 0.00 0.00 60 1016.4
20260831010058 79 231 0.0 0.0 0.00 0.00 0.00 60 1016.4
20260831005558 79 231 0.0 0.0 0.00 0.00 0.00 60 1016.3
20260831005102 79 231 0.0 0.0 0.00 0.00 0.00 60 1016.3
20260831004557 80 231 0.0 0.0 0.00 0.00 0.00 59 1016.3
20260831004101 81 232 0.0 0.0 0.00 0.00 0.00 58 1016.3
20260831003558 81 232 0.0 0.0 0.00 0.00 0.00 57 1016.3
20260831003101 82 232 0.0 0.0 0.00 0.00 0.00 56 1016.3
20260831002557 82 232 0.0 0.0 0.00 0.00 0.00 55 1016.3
20260831002056 82 232 0.0 0.0 0.00 0.00 0.00 55 1016.3
20260831001602 83 232 0.0 0.0 0.00 0.00 0.00 54 1016.3
20260831001056 83 232 0.0 0.0 0.00 0.00 0.00 53 1016.3
20260831000556 84 232 0.0 0.0 0.00 0.00 0.00 53 1016.2
20260831000059 85 232 0.0 0.0 0.00 0.00 0.00 53 1016.3
20260830235558 86 232 0.0 0.0 0.00 0.00 0.00 50 1016.3
20260830235056 87 232 0.0 0.0 0.00 0.00 0.00 49 1016.3
20260830234602 87 232 0.0 0.0 0.00 0.00 0.00 49 1016.3
20260830234054 88 232 0.0 0.0 0.00 0.00 0.00 48 1016.3
20260830233559 88 232 0.0 0.0 0.00 0.00 0.00 48 1016.3
20260830233055 88 232 0.0 0.0 0.00 0.00 0.00 45 1016.2
20260830232558 89 232 0.0 0.0 0.00 0.00 0.00 44 1016.3
20260830232056 89 232 0.0 0.0 0.00 0.00 0.00 42 1016.3
20260830231554 90 232 0.0 0.0 0.00 0.00 0.00 40 1016.4
20260830231053 90 232 0.0 0.0 0.00 0.00 0.00 41 1016.4
20260830230553 90 232 0.0 0.0 0.00 0.00 0.00 40 1016.4
20260830230053 91 232 0.0 0.0 0.00 0.00 0.00 37 1016.4
20260830225552 90 232 0.0 0.0 0.00 0.00 0.00 37 1016.2
20260830225053 90 232 0.0 0.0 0.00 0.00 0.00 36 1016.3
20260830224555 90 232 0.0 0.0 0.00 0.00 0.00 37 1016.3
20260830224053 90 232 0.0 0.0 0.00 0.00 0.00 36 1016.3
20260830223552 90 230 0.0 1.0 0.00 0.00 0.00 36 1016.3
20260830223052 90 227 0.0 1.0 0.00 0.00 0.00 35 1016.3
20260830222553 91 275 0.0 0.0 0.00 0.00 0.00 37 1016.3
20260830222055 90 243 0.0 0.0 0.00 0.00 0.00 35 1016.4
20260830221551 90 243 0.0 0.0 0.00 0.00 0.00 34 1016.4
20260830221055 91 294 0.0 0.0 0.00 0.00 0.00 36 1016.4
20260830220550 93 294 0.0 0.0 0.00 0.00 0.00 35 1016.4
20260830220056 93 263 0.0 0.0 0.00 0.00 0.00 35 1016.5
20260830215549 92 263 0.0 0.0 0.00 0.00 0.00 36 1016.6
20260830215048 92 265 0.0 0.0 0.00 0.00 0.00 35 1016.6
20260830214607 91 267 0.0 0.0 0.00 0.00 0.00 37 1016.6
20260830214047 91 280 0.0 0.0 0.00 0.00 0.00 36 1016.6
20260830213547 91 280 0.0 0.0 0.00 0.00 0.00 35 1016.8
20260830213047 92 257 0.0 0.0 0.00 0.00 0.00 34 1016.7
20260830212547 92 263 0.0 0.0 0.00 0.00 0.00 36 1016.8
20260830212046 91 273 0.0 0.0 0.00 0.00 0.00 36 1016.8
20260830211553 91 272 0.0 0.0 0.00 0.00 0.00 36 1016.8
20260830211046 91 260 0.0 0.0 0.00 0.00 0.00 36 1016.8
20260830210547 91 269 0.0 0.0 0.00 0.00 0.00 36 1016.8
20260830210050 90 292 0.0 0.0 0.00 0.00 0.00 37 1016.7
20260830205544 91 279 0.0 0.0 0.00 0.00 0.00 35 1016.8
20260830205044 92 299 0.0 1.0 0.00 0.00 0.00 35 1016.8
20260830204543 92 263 0.0 1.0 0.00 0.00 0.00 36 1017.0
20260830204043 92 252 0.0 0.0 0.00 0.00 0.00 36 1017.0
20260830203545 91 276 0.0 0.0 0.00 0.00 0.00 37 1017.1
20260830203050 91 230 0.0 0.0 0.00 0.00 0.00 36 1017.1
20260830202543 91 271 0.0 0.0 0.00 0.00 0.00 37 1017.1
20260830202042 91 265 0.0 0.0 0.00 0.00 0.00 37 1017.1
20260830201541 92 202 0.0 0.0 0.00 0.00 0.00 38 1017.2
20260830201040 92 294 0.0 0.0 0.00 0.00 0.00 36 1017.3
20260830200539 93 213 0.0 1.0 0.00 0.00 0.00 36 1017.3
20260830200039 92 186 0.0 1.0 0.00 0.00 0.00 35 1017.3
20260830195542 91 237 0.0 0.0 0.00 0.00 0.00 37 1017.3
20260830195038 91 281 0.0 0.0 0.00 0.00 0.00 36 1017.3
20260830194538 91 211 0.0 0.0 0.00 0.00 0.00 36 1017.3
20260830194037 91 203 0.0 0.0 0.00 0.00 0.00 36 1017.4
20260830193538 91 169 0.0 0.0 0.00 0.00 0.00 37 1017.5
20260830193043 91 168 0.0 0.0 0.00 0.00 0.00 37 1017.4
20260830192536 91 153 0.0 1.0 0.00 0.00 0.00 38 1017.5
20260830192033 90 190 0.0 0.0 0.00 0.00 0.00 38 1017.7
20260830191534 90 246 0.0 2.0 0.00 0.00 0.00 38 1017.9
20260830191034 91 211 0.0 2.0 0.00 0.00 0.00 38 1017.9
20260830190531 90 246 0.0 5.0 0.00 0.00 0.00 40 1018.0
20260830190036 90 236 0.0 5.0 0.00 0.00 0.00 39 1018.2
20260830185531 89 289 0.0 0.0 0.00 0.00 0.00 39 1018.2
20260830185030 89 265 0.0 0.0 0.00 0.00 0.00 38 1018.3
20260830184533 90 257 0.0 0.0 0.00 0.00 0.00 37 1018.3
20260830184030 90 219 0.0 0.0 0.00 0.00 0.00 36 1018.4
20260830183529 90 217 0.0 0.0 0.00 0.00 0.00 38 1018.5
20260830183029 89 277 0.0 0.0 0.00 0.00 0.00 37 1018.5
20260830182529 89 252 0.0 3.0 0.00 0.00 0.00 39 1018.6
20260830182029 89 211 0.0 3.0 0.00 0.00 0.00 37 1018.7
20260830181529 89 248 0.0 0.0 0.00 0.00 0.00 41 1018.7
20260830181028 89 240 0.0 0.0 0.00 0.00 0.00 41 1018.8
20260830180531 89 251 0.0 0.0 0.00 0.00 0.00 40 1018.8
20260830180031 90 207 0.0 1.0 0.00 0.00 0.00 40 1018.8
20260830175526 89 267 0.0 0.0 0.00 0.00 0.00 45 1018.9
20260830175026 88 268 0.0 0.0 0.00 0.00 0.00 44 1018.9
20260830174528 88 263 0.0 0.0 0.00 0.00 0.00 43 1019.0
20260830174026 87 240 0.0 0.0 0.00 0.00 0.00 46 1018.9
20260830173525 87 243 0.0 0.0 0.00 0.00 0.00 45 1019.0
20260830173041 87 195 0.0 0.0 0.00 0.00 0.00 46 1019.0
20260830172530 87 219 0.0 0.0 0.00 0.00 0.00 45 1018.9
20260830172026 88 219 0.0 0.0 0.00 0.00 0.00 44 1019.0
20260830171528 88 236 0.0 0.0 0.00 0.00 0.00 47 1019.0
20260830171023 89 238 0.0 0.0 0.00 0.00 0.00 48 1019.0
20260830170523 88 202 0.0 0.0 0.00 0.00 0.00 46 1019.1
20260830170027 88 219 0.0 0.0 0.00 0.00 0.00 48 1019.1
20260830165526 87 211 0.0 0.0 0.00 0.00 0.00 48 1019.1
20260830165022 88 210 0.0 0.0 0.00 0.00 0.00 47 1019.1
20260830164522 87 185 0.0 0.0 0.00 0.00 0.00 47 1019.1
20260830164021 88 186 0.0 0.0 0.00 0.00 0.00 47 1019.1
20260830163521 88 203 0.0 0.0 0.00 0.00 0.00 47 1019.3
20260830163031 88 239 0.0 0.0 0.00 0.00 0.00 48 1019.3
20260830162520 87 205 0.0 0.0 0.00 0.00 0.00 48 1019.3
20260830162020 87 228 0.0 0.0 0.00 0.00 0.00 47 1019.4
20260830161519 87 202 0.0 0.0 0.00 0.00 0.00 48 1019.5
20260830161019 87 200 0.0 0.0 0.00 0.00 0.00 49 1019.5
20260830160518 86 189 0.0 0.0 0.00 0.00 0.00 49 1019.4
20260830160018 87 204 0.0 0.0 0.00 0.00 0.00 48 1019.4
20260830155518 87 203 0.0 0.0 0.00 0.00 0.00 48 1019.4
20260830155017 87 176 0.0 0.0 0.00 0.00 0.00 48 1019.5
20260830154519 86 194 0.0 0.0 0.00 0.00 0.00 49 1019.6
20260830154015 86 178 0.0 0.0 0.00 0.00 0.00 48 1019.5
20260830153517 86 187 0.0 1.0 0.00 0.00 0.00 49 1019.5
20260830153014 85 203 0.0 1.0 0.00 0.00 0.00 51 1019.5
20260830152511 85 288 0.0 0.0 0.00 0.00 0.00 50 1019.6
20260830152011 85 227 0.0 0.0 0.00 0.00 0.00 52 1019.5
20260830151508 84 240 0.0 0.0 0.00 0.00 0.00 52 1019.4
20260830151008 84 236 0.0 0.0 0.00 0.00 0.00 51 1019.4
20260830150507 83 234 0.0 0.0 0.00 0.00 0.00 52 1019.4
20260830150006 83 204 0.0 0.0 0.00 0.00 0.00 52 1019.3
20260830145505 83 173 0.0 0.0 0.00 0.00 0.00 54 1019.3
20260830145005 83 225 0.0 0.0 0.00 0.00 0.00 53 1019.2
20260830144503 82 173 0.0 0.0 0.00 0.00 0.00 54 1019.2
20260830144002 82 195 0.0 0.0 0.00 0.00 0.00 54 1019.1
20260830143502 82 196 0.0 0.0 0.00 0.00 0.00 53 1019.1
20260830143102 81 183 0.0 0.0 0.00 0.00 0.00 52 1019.1
20260830142600 81 190 0.0 0.0 0.00 0.00 0.00 53 1019.0
20260830142058 80 183 0.0 0.0 0.00 0.00 0.00 55 1019.0
20260830141556 80 184 0.0 0.0 0.00 0.00 0.00 56 1019.0
20260830141057 79 182 0.0 0.0 0.00 0.00 0.00 56 1019.0
20260830140553 79 201 0.0 0.0 0.00 0.00 0.00 56 1019.2
20260830140052 78 228 0.0 0.0 0.00 0.00 0.00 58 1019.1
20260830135551 78 169 0.0 0.0 0.00 0.00 0.00 58 1019.1
20260830135051 77 170 0.0 0.0 0.00 0.00 0.00 58 1019.0
20260830134549 76 197 0.0 0.0 0.00 0.00 0.00 58 1019.0
20260830134047 76 196 0.0 0.0 0.00 0.00 0.00 59 1019.0
20260830133547 75 199 0.0 0.0 0.00 0.00 0.00 59 1019.0
20260830133044 75 192 0.0 0.0 0.00 0.00 0.00 60 1019.0
20260830132544 74 190 0.0 0.0 0.00 0.00 0.00 60 1019.0
20260830132042 74 189 0.0 0.0 0.00 0.00 0.00 60 1018.9
20260830131541 74 191 0.0 0.0 0.00 0.00 0.00 60 1018.8
20260830131040 73 193 0.0 0.0 0.00 0.00 0.00 60 1018.8
20260830130539 73 188 0.0 0.0 0.00 0.00 0.00 60 1018.7
20260830130039 73 184 0.0 0.0 0.00 0.00 0.00 60 1018.7
20260830125537 72 188 0.0 0.0 0.00 0.00 0.00 61 1018.7
20260830125036 72 183 0.0 0.0 0.00 0.00 0.00 61 1018.7
20260830124541 72 191 0.0 0.0 0.00 0.00 0.00 61 1018.8
20260830124035 72 186 0.0 0.0 0.00 0.00 0.00 61 1018.8
20260830123534 71 184 0.0 0.0 0.00 0.00 0.00 62 1018.8
20260830123033 71 186 0.0 0.0 0.00 0.00 0.00 62 1018.7
20260830122532 70 199 0.0 0.0 0.00 0.00 0.00 63 1018.7
20260830122033 70 198 0.0 0.0 0.00 0.00 0.00 63 1018.7
20260830121529 69 200 0.0 0.0 0.00 0.00 0.00 63 1018.7
20260830121028 69 205 0.0 0.0 0.00 0.00 0.00 63 1018.7
20260830120528 69 200 0.0 0.0 0.00 0.00 0.00 63 1018.6
20260830120031 68 200 0.0 0.0 0.00 0.00 0.00 64 1018.5
20260830115526 68 200 0.0 0.0 0.00 0.00 0.00 64 1018.5
20260830115025 68 199 0.0 0.0 0.00 0.00 0.00 64 1018.5
20260830114524 68 199 0.0 0.0 0.00 0.00 0.00 65 1018.4
20260830114025 67 197 0.0 0.0 0.00 0.00 0.00 65 1018.4
20260830113524 67 197 0.0 0.0 0.00 0.00 0.00 65 1018.3
20260830113024 67 197 0.0 0.0 0.00 0.00 0.00 66 1018.2
20260830112524 67 205 0.0 0.0 0.00 0.00 0.00 66 1018.2
20260830112024 67 205 0.0 0.0 0.00 0.00 0.00 66 1018.2
20260830111523 67 205 0.0 0.0 0.00 0.00 0.00 67 1018.2
20260830111023 67 205 0.0 0.0 0.00 0.00 0.00 68 1018.2
20260830110524 67 205 0.0 0.0 0.00 0.00 0.00 68 1018.2
20260830110023 67 205 0.0 0.0 0.00 0.00 0.00 69 1018.1
20260830105624 67 205 0.0 0.0 0.00 0.00 0.00 69 1018.1
20260830105024 66 205 0.0 0.0 0.00 0.00 0.00 69 1018.0
20260830104522 66 211 0.0 0.0 0.00 0.00 0.00 69 1018.1
20260830104026 66 209 0.0 0.0 0.00 0.00 0.00 69 1018.1
20260830103522 66 209 0.0 0.0 0.00 0.00 0.00 69 1018.0
20260830103021 65 178 0.0 0.0 0.00 0.00 0.00 69 1018.0
20260830102523 65 178 0.0 0.0 0.00 0.00 0.00 69 1018.1
20260830102021 65 178 0.0 0.0 0.00 0.00 0.00 69 1017.9
20260830101520 65 178 0.0 0.0 0.00 0.00 0.00 69 1018.0
20260830101023 65 176 0.0 0.0 0.00 0.00 0.00 69 1017.9
20260830100520 65 171 0.0 0.0 0.00 0.00 0.00 68 1017.9
20260830100031 64 144 0.0 0.0 0.00 0.00 0.00 68 1017.8
20260830095518 64 94 0.0 0.0 0.00 0.00 0.00 67 1017.8
20260830095019 64 94 0.0 0.0 0.00 0.00 0.00 67 1017.8
20260830094519 64 94 0.0 0.0 0.00 0.00 0.00 67 1017.8
20260830094018 64 94 0.0 0.0 0.00 0.00 0.00 67 1017.9
20260830093517 64 94 0.0 0.0 0.00 0.00 0.00 67 1017.9
20260830093035 64 94 0.0 0.0 0.00 0.00 0.00 67 1018.0
20260830092517 65 94 0.0 0.0 0.00 0.00 0.00 67 1018.0
20260830092017 64 94 0.0 0.0 0.00 0.00 0.00 67 1018.0
20260830091517 64 94 0.0 0.0 0.00 0.00 0.00 67 1018.0
20260830091016 64 94 0.0 0.0 0.00 0.00 0.00 66 1018.1
20260830090518 65 94 0.0 0.0 0.00 0.00 0.00 66 1018.1
20260830090015 65 94 0.0 0.0 0.00 0.00 0.00 66 1018.2
20260830085515 65 94 0.0 0.0 0.00 0.00 0.00 66 1018.2
20260830085014 65 94 0.0 0.0 0.00 0.00 0.00 66 1018.1
20260830084514 65 94 0.0 0.0 0.00 0.00 0.00 66 1018.1
20260830084013 65 94 0.0 0.0 0.00 0.00 0.00 66 1018.1
20260830083513 65 94 0.0 0.0 0.00 0.00 0.00 66 1018.1
20260830083012 65 94 0.0 0.0 0.00 0.00 0.00 66 1018.1
20260830082513 65 94 0.0 0.0 0.00 0.00 0.00 66 1018.1
20260830082011 65 94 0.0 0.0 0.00 0.00 0.00 66 1018.0
20260830081511 65 94 0.0 0.0 0.00 0.00 0.00 66 1018.1
20260830081011 65 94 0.0 0.0 0.00 0.00 0.00 66 1018.1
20260830080510 65 94 0.0 0.0 0.00 0.00 0.00 66 1018.1
20260830080011 65 94 0.0 0.0 0.00 0.00 0.00 66 1018.1
20260830075511 65 94 0.0 0.0 0.00 0.00 0.00 66 1018.2
20260830075010 65 94 0.0 0.0 0.00 0.00 0.00 66 1018.1
20260830074509 65 94 0.0 0.0 0.00 0.00 0.00 65 1018.2
20260830074012 65 94 0.0 0.0 0.00 0.00 0.00 65 1018.1
20260830073509 65 94 0.0 0.0 0.00 0.00 0.00 65 1018.2
20260830073011 66 94 0.0 0.0 0.00 0.00 0.00 65 1018.2
20260830072509 66 94 0.0 0.0 0.00 0.00 0.00 65 1018.2
20260830072008 66 94 0.0 0.0 0.00 0.00 0.00 65 1018.2
20260830071508 66 94 0.0 0.0 0.00 0.00 0.00 64 1018.3
20260830071005 66 94 0.0 0.0 0.00 0.00 0.00 64 1018.4
20260830070505 66 94 0.0 0.0 0.00 0.00 0.00 64 1018.4
20260830070005 66 94 0.0 0.0 0.00 0.00 0.00 64 1018.4
20260830065503 67 94 0.0 0.0 0.00 0.00 0.00 64 1018.4
20260830065004 67 94 0.0 0.0 0.00 0.00 0.00 64 1018.4
20260830064504 67 94 0.0 0.0 0.00 0.00 0.00 64 1018.4
20260830064004 67 94 0.0 0.0 0.00 0.00 0.00 64 1018.5
20260830063504 67 94 0.0 0.0 0.00 0.00 0.00 64 1018.5
20260830063004 67 94 0.0 0.0 0.00 0.00 0.00 64 1018.5
20260830062504 67 94 0.0 0.0 0.00 0.00 0.00 64 1018.6
20260830062003 67 94 0.0 0.0 0.00 0.00 0.00 64 1018.7
20260830061505 67 94 0.0 0.0 0.00 0.00 0.00 64 1018.7
20260830061003 67 94 0.0 0.0 0.00 0.00 0.00 64 1018.7
20260830060503 67 94 0.0 0.0 0.00 0.00 0.00 64 1018.7
20260830060004 67 94 0.0 0.0 0.00 0.00 0.00 64 1018.7
20260830055502 67 94 0.0 0.0 0.00 0.00 0.00 64 1018.6
20260830055002 67 94 0.0 0.0 0.00 0.00 0.00 64 1018.7
20260830054503 67 94 0.0 0.0 0.00 0.00 0.00 64 1018.7
20260830054002 67 94 0.0 0.0 0.00 0.00 0.00 64 1018.7
20260830053600 67 94 0.0 0.0 0.00 0.00 0.00 64 1018.7
20260830053502 67 94 0.0 0.0 0.00 0.00 0.00 64 1018.7
20260830053001 67 94 0.0 0.0 0.00 0.00 0.00 64 1018.7
20260830052600 67 94 0.0 0.0 0.00 0.00 0.00 64 1018.7
20260830052100 67 94 0.0 0.0 0.00 0.00 0.00 64 1018.7
20260830051600 67 94 0.0 0.0 0.00 0.00 0.00 64 1018.7
20260830051101 67 94 0.0 0.0 0.00 0.00 0.00 64 1018.7
20260830050602 67 94 0.0 0.0 0.00 0.00 0.00 64 1018.7
20260830050058 67 94 0.0 0.0 0.00 0.00 0.00 64 1018.6
20260830045558 67 94 0.0 0.0 0.00 0.00 0.00 64 1018.6
20260830045059 67 94 0.0 0.0 0.00 0.00 0.00 64 1018.6
20260830044640 67 94 0.0 0.0 0.00 0.00 0.00 64 1018.6
20260830044057 67 94 0.0 0.0 0.00 0.00 0.00 64 1018.6
20260830043600 67 94 0.0 0.0 0.00 0.00 0.00 64 1018.6
20260830043056 67 94 0.0 0.0 0.00 0.00 0.00 64 1018.4
20260830042556 67 94 0.0 0.0 0.00 0.00 0.00 64 1018.5
20260830042054 67 94 0.0 0.0 0.00 0.00 0.00 64 1018.4
20260830041559 67 94 0.0 0.0 0.00 0.00 0.00 64 1018.4
20260830041056 67 94 0.0 0.0 0.00 0.00 0.00 64 1018.3
20260830040553 67 94 0.0 0.0 0.00 0.00 0.00 64 1018.4
20260830040058 68 94 0.0 0.0 0.00 0.00 0.00 64 1018.4
20260830035552 68 94 0.0 0.0 0.00 0.00 0.00 64 1018.4
20260830035052 68 94 0.0 0.0 0.00 0.00 0.00 64 1018.3
20260830034552 68 94 0.0 0.0 0.00 0.00 0.00 64 1018.4
20260830034052 68 94 0.0 0.0 0.00 0.00 0.00 63 1018.3
20260830033553 68 94 0.0 0.0 0.00 0.00 0.00 63 1018.4
20260830033058 68 94 0.0 0.0 0.00 0.00 0.00 63 1018.4
20260830032551 68 94 0.0 0.0 0.00 0.00 0.00 63 1018.3
20260830032051 68 94 0.0 0.0 0.00 0.00 0.00 63 1018.3
20260830031554 68 94 0.0 0.0 0.00 0.00 0.00 63 1018.3
20260830031050 68 94 0.0 0.0 0.00 0.00 0.00 63 1018.3